START_TIME,STEP,MOV.,AL01,t_acc.,AL02,t_acc.,E37,t_acc.,H21,t_acc.
1979-07-31 00:00:33.300 ,0,0,0.,24.0,0.,24.0,2.,24.0,0.,24.0
1979-07-31 00:00:57.300 ,1,1,0.,24.0,0.,24.0,0.,24.0,0.,24.0
1979-07-31 00:01:21.300 ,1,0,0.,24.0,0.,24.0,0.,24.0,0.,24.0
1979-07-31 00:01:45.300 ,2,1,0.,24.0,0.,24.0,0.,24.0,0.,24.0
1979-07-31 00:02:09.300 ,2,0,0.,24.0,0.,24.0,3.,24.0,0.,24.0
1979-07-31 00:02:33.300 ,3,1,0.,24.0,0.,24.0,0.,24.0,0.,24.0
1979-07-31 00:02:57.300 ,3,0,0.,24.0,0.,24.0,0.,24.0,0.,24.0
1979-07-31 00:03:21.300 ,4,1,0.,24.0,1.,24.0,0.,24.0,0.,24.0
1979-07-31 00:03:45.300 ,4,0,1.,24.0,0.,24.0,3.,24.0,0.,24.0
1979-07-31 00:04:09.300 ,5,1,0.,24.0,0.,24.0,1.,24.0,0.,24.0
1979-07-31 00:04:33.300 ,5,0,0.,24.0,0.,24.0,1.,24.0,0.,24.0
1979-07-31 00:04:57.300 ,6,1,0.,24.0,0.,24.0,0.,24.0,0.,24.0
1979-07-31 00:05:21.300 ,6,0,0.,24.0,0.,24.0,1.,24.0,0.,24.0
1979-07-31 00:05:45.300 ,7,1,5.,24.0,0.,24.0,0.,24.0,0.,24.0
1979-07-31 00:06:09.300 ,7,0,38.,24.0,0.,24.0,2.,24.0,0.,24.0
1979-07-31 00:06:33.300 ,7,1,29.,24.0,0.,24.0,2.,24.0,0.,24.0
1979-07-31 00:06:57.300 ,7,0,35.,24.0,0.,24.0,0.,24.0,0.,24.0
1979-07-31 00:07:21.300 ,6,1,22.,24.0,0.,24.0,0.,24.0,0.,24.0
1979-07-31 00:07:45.300 ,6,0,0.,24.0,0.,24.0,1.,24.0,0.,24.0
1979-07-31 00:08:09.300 ,5,1,0.,24.0,0.,24.0,1.,24.0,0.,24.0
1979-07-31 00:08:33.300 ,5,0,0.,24.0,0.,24.0,1.,24.0,0.,24.0
1979-07-31 00:08:57.300 ,4,1,0.,24.0,0.,24.0,0.,24.0,0.,24.0
1979-07-31 00:09:21.300 ,4,0,0.,24.0,0.,24.0,1.,24.0,0.,24.0
1979-07-31 00:09:45.300 ,3,1,0.,24.0,0.,24.0,1.,24.0,0.,24.0
1979-07-31 00:10:09.300 ,3,0,0.,24.0,0.,24.0,2.,24.0,0.,24.0
1979-07-31 00:10:33.300 ,2,1,0.,24.0,0.,24.0,0.,24.0,0.,24.0
1979-07-31 00:10:57.300 ,2,0,0.,24.0,0.,24.0,0.,24.0,0.,24.0
1979-07-31 00:11:21.300 ,1,1,0.,24.0,0.,24.0,0.,24.0,0.,24.0
1979-07-31 00:11:45.300 ,1,0,0.,24.0,0.,24.0,4.,24.0,0.,24.0
1979-07-31 00:12:09.300 ,0,1,0.,24.0,0.,24.0,1.,24.0,0.,24.0
1979-07-31 00:12:33.300 ,0,0,0.,24.0,0.,24.0,1.,24.0,0.,24.0
1979-07-31 00:12:57.300 ,0,1,0.,24.0,0.,24.0,1.,24.0,0.,24.0
1979-07-31 00:13:21.300 ,0,0,0.,24.0,0.,24.0,3.,24.0,0.,24.0
1979-07-31 00:13:45.300 ,1,1,0.,24.0,0.,24.0,0.,24.0,0.,24.0
1979-07-31 00:14:09.300 ,1,0,0.,24.0,0.,24.0,0.,24.0,0.,24.0
1979-07-31 00:14:33.300 ,2,1,0.,24.0,0.,24.0,2.,24.0,0.,24.0
1979-07-31 00:14:57.300 ,2,0,0.,24.0,0.,24.0,0.,24.0,0.,24.0
1979-07-31 00:15:21.300 ,3,1,0.,24.0,0.,24.0,2.,24.0,0.,24.0
1979-07-31 00:15:45.300 ,3,0,0.,24.0,0.,24.0,4.,24.0,0.,24.0
1979-07-31 00:16:09.300 ,4,1,0.,24.0,0.,24.0,1.,24.0,0.,24.0
1979-07-31 00:16:33.300 ,4,0,0.,24.0,0.,24.0,1.,24.0,0.,24.0
1979-07-31 00:16:57.300 ,5,1,0.,24.0,0.,24.0,1.,24.0,0.,24.0
1979-07-31 00:17:21.300 ,5,0,0.,24.0,0.,24.0,0.,24.0,0.,24.0
1979-07-31 00:17:45.300 ,6,1,0.,24.0,0.,24.0,1.,24.0,0.,24.0
1979-07-31 00:18:09.300 ,6,0,0.,24.0,0.,24.0,1.,24.0,0.,24.0
1979-07-31 00:18:33.300 ,7,0,7.,24.0,0.,24.0,1.,24.0,0.,24.0
1979-07-31 00:18:57.300 ,7,0,21.,24.0,0.,24.0,0.,24.0,0.,24.0
1979-07-31 00:19:21.300 ,5,1,17.,24.0,0.,24.0,3.,24.0,0.,24.0
1979-07-31 00:19:45.300 ,1,1,0.,24.0,0.,24.0,0.,24.0,0.,24.0
1979-07-31 00:20:09.300 ,2,1,0.,24.0,0.,24.0,0.,24.0,0.,24.0
1979-07-31 00:20:33.300 ,6,1,0.,24.0,0.,24.0,0.,24.0,0.,24.0
1979-07-31 00:20:57.300 ,5,1,15.,24.0,0.,24.0,0.,24.0,0.,24.0
1979-07-31 00:21:21.300 ,1,1,0.,24.0,0.,24.0,1.,24.0,0.,24.0
1979-07-31 00:21:45.300 ,2,1,1.,24.0,0.,24.0,1.,24.0,0.,24.0
1979-07-31 00:22:09.300 ,6,1,0.,24.0,0.,24.0,1.,24.0,0.,24.0
1979-07-31 00:22:33.300 ,5,1,13.,24.0,0.,24.0,0.,24.0,0.,24.0
1979-07-31 00:22:57.300 ,1,1,0.,24.0,0.,24.0,1.,24.0,0.,24.0
1979-07-31 00:23:21.300 ,2,1,0.,24.0,0.,24.0,1.,24.0,0.,24.0
1979-07-31 00:23:45.300 ,6,1,0.,24.0,0.,24.0,2.,24.0,0.,24.0
1979-07-31 00:24:09.300 ,5,1,20.,24.0,0.,24.0,0.,24.0,0.,24.0
1979-07-31 00:24:33.300 ,1,1,0.,24.0,0.,24.0,0.,24.0,0.,24.0
1979-07-31 00:24:57.300 ,2,1,0.,24.0,0.,24.0,2.,24.0,0.,24.0
1979-07-31 00:25:21.300 ,6,1,0.,24.0,0.,24.0,0.,24.0,0.,24.0
1979-07-31 00:25:45.300 ,5,1,16.,24.0,1.,24.0,1.,24.0,0.,24.0
1979-07-31 00:26:09.300 ,1,1,0.,24.0,0.,24.0,2.,24.0,0.,24.0
1979-07-31 00:26:33.300 ,2,1,0.,24.0,0.,24.0,2.,24.0,0.,24.0
1979-07-31 00:26:57.300 ,6,1,0.,24.0,0.,24.0,0.,24.0,0.,24.0
1979-07-31 00:27:21.300 ,5,1,17.,24.0,0.,24.0,2.,24.0,0.,24.0
1979-07-31 00:27:45.300 ,1,1,1.,24.0,0.,24.0,1.,24.0,0.,24.0
1979-07-31 00:28:09.300 ,2,1,0.,24.0,0.,24.0,0.,24.0,0.,24.0
1979-07-31 00:28:33.300 ,6,1,0.,24.0,0.,24.0,0.,24.0,0.,24.0
1979-07-31 00:28:57.300 ,5,1,12.,24.0,0.,24.0,0.,24.0,0.,24.0
1979-07-31 00:29:21.300 ,1,1,0.,24.0,0.,24.0,1.,24.0,0.,24.0
1979-07-31 00:29:45.300 ,0,0,0.,24.0,0.,24.0,0.,24.0,0.,24.0
1979-07-31 00:30:09.300 ,0,0,0.,24.0,0.,24.0,0.,24.0,0.,24.0
1979-07-31 00:30:33.300 ,5,1,15.,24.0,0.,24.0,1.,24.0,0.,24.0
1979-07-31 00:30:57.300 ,5,0,0.,24.0,0.,24.0,0.,24.0,0.,24.0
1979-07-31 00:31:21.300 ,4,1,0.,24.0,0.,24.0,0.,24.0,0.,24.0
1979-07-31 00:31:45.300 ,4,0,0.,24.0,0.,24.0,0.,24.0,0.,24.0
1979-07-31 00:32:09.300 ,3,1,1.,24.0,0.,24.0,2.,24.0,0.,24.0
1979-07-31 00:32:33.300 ,3,0,0.,24.0,0.,24.0,1.,24.0,0.,24.0
1979-07-31 00:32:57.300 ,2,1,0.,24.0,0.,24.0,0.,24.0,0.,24.0
1979-07-31 00:33:21.300 ,2,0,0.,24.0,0.,24.0,0.,24.0,0.,24.0
1979-07-31 00:33:45.300 ,1,1,0.,24.0,0.,24.0,1.,24.0,0.,24.0
1979-07-31 00:34:09.300 ,1,0,0.,24.0,0.,24.0,1.,24.0,0.,24.0
1979-07-31 00:34:33.300 ,0,1,0.,24.0,0.,24.0,2.,24.0,0.,24.0
1979-07-31 00:34:57.300 ,0,0,1.,24.0,0.,24.0,1.,24.0,0.,24.0
1979-07-31 00:35:21.300 ,0,1,0.,24.0,0.,24.0,1.,24.0,0.,24.0
1979-07-31 00:35:45.300 ,0,0,0.,24.0,0.,24.0,3.,24.0,0.,24.0
1979-07-31 00:36:09.300 ,1,1,0.,24.0,0.,24.0,0.,24.0,0.,24.0
1979-07-31 00:36:33.300 ,1,0,0.,24.0,0.,24.0,1.,24.0,0.,24.0
1979-07-31 00:36:57.300 ,2,1,1.,24.0,0.,24.0,2.,24.0,0.,24.0
1979-07-31 00:37:21.300 ,2,0,0.,24.0,0.,24.0,0.,24.0,0.,24.0
1979-07-31 00:37:45.300 ,3,1,0.,24.0,0.,24.0,2.,24.0,0.,24.0
1979-07-31 00:38:09.300 ,3,0,0.,24.0,0.,24.0,0.,24.0,0.,24.0
1979-07-31 00:38:33.300 ,4,1,0.,24.0,0.,24.0,1.,24.0,0.,24.0
1979-07-31 00:38:57.300 ,4,0,0.,24.0,0.,24.0,2.,24.0,0.,24.0
1979-07-31 00:39:21.300 ,5,1,0.,24.0,0.,24.0,3.,24.0,0.,24.0
1979-07-31 00:39:45.300 ,5,0,0.,24.0,0.,24.0,2.,24.0,0.,24.0
1979-07-31 00:40:09.300 ,6,1,0.,24.0,1.,24.0,0.,24.0,0.,24.0
1979-07-31 00:40:33.300 ,6,0,0.,24.0,0.,24.0,1.,24.0,0.,24.0
1979-07-31 00:40:57.300 ,7,1,4.,24.0,0.,24.0,0.,24.0,0.,24.0
1979-07-31 00:41:21.300 ,7,0,30.,24.0,0.,24.0,1.,24.0,0.,24.0
1979-07-31 00:41:45.300 ,7,1,33.,24.0,0.,24.0,0.,24.0,0.,24.0
1979-07-31 00:42:09.300 ,7,0,23.,24.0,0.,24.0,0.,24.0,0.,24.0
1979-07-31 00:42:33.300 ,6,1,25.,24.0,0.,24.0,2.,24.0,0.,24.0
1979-07-31 00:42:57.300 ,6,0,0.,24.0,0.,24.0,0.,24.0,0.,24.0
1979-07-31 00:43:21.300 ,5,1,0.,24.0,0.,24.0,0.,24.0,0.,24.0
1979-07-31 00:43:45.300 ,5,0,1.,24.0,0.,24.0,1.,24.0,0.,24.0
1979-07-31 00:44:09.300 ,4,1,0.,24.0,0.,24.0,0.,24.0,0.,24.0
1979-07-31 00:44:33.300 ,4,0,0.,24.0,1.,24.0,0.,24.0,0.,24.0
1979-07-31 00:44:57.300 ,3,1,0.,24.0,0.,24.0,1.,24.0,0.,24.0
1979-07-31 00:45:21.300 ,3,0,0.,24.0,0.,24.0,1.,24.0,0.,24.0
1979-07-31 00:45:45.300 ,2,1,0.,24.0,0.,24.0,0.,24.0,0.,24.0
1979-07-31 00:46:09.300 ,2,0,0.,24.0,0.,24.0,2.,24.0,0.,24.0
1979-07-31 00:46:33.300 ,1,1,0.,24.0,0.,24.0,1.,24.0,0.,24.0
1979-07-31 00:46:57.300 ,1,0,1.,24.0,0.,24.0,0.,24.0,0.,24.0
1979-07-31 00:47:21.300 ,0,1,0.,24.0,0.,24.0,2.,24.0,0.,24.0
1979-07-31 00:47:45.300 ,0,0,0.,24.0,0.,24.0,0.,24.0,0.,24.0
1979-07-31 00:48:09.300 ,0,1,0.,24.0,0.,24.0,0.,24.0,0.,24.0
1979-07-31 00:48:33.300 ,0,0,0.,24.0,0.,24.0,0.,24.0,0.,24.0
1979-07-31 00:48:57.300 ,1,1,0.,24.0,0.,24.0,1.,24.0,0.,24.0
1979-07-31 00:49:21.300 ,1,0,0.,24.0,0.,24.0,0.,24.0,0.,24.0
1979-07-31 00:49:45.300 ,2,1,1.,24.0,0.,24.0,0.,24.0,0.,24.0
1979-07-31 00:50:09.300 ,2,0,0.,24.0,0.,24.0,1.,24.0,0.,24.0
1979-07-31 00:50:33.300 ,3,1,0.,24.0,0.,24.0,1.,24.0,0.,24.0
1979-07-31 00:50:57.300 ,3,0,0.,24.0,0.,24.0,1.,24.0,0.,24.0
1979-07-31 00:51:21.300 ,4,1,0.,24.0,0.,24.0,1.,24.0,0.,24.0
1979-07-31 00:51:45.300 ,4,0,0.,24.0,0.,24.0,0.,24.0,0.,24.0
1979-07-31 00:52:09.300 ,5,1,0.,24.0,0.,24.0,0.,24.0,0.,24.0
1979-07-31 00:52:33.300 ,5,0,0.,24.0,0.,24.0,0.,24.0,0.,24.0
1979-07-31 00:52:57.300 ,6,1,0.,24.0,0.,24.0,0.,24.0,0.,24.0
1979-07-31 00:53:21.300 ,6,0,0.,24.0,0.,24.0,0.,24.0,0.,24.0
1979-07-31 00:53:45.300 ,7,1,10.,24.0,0.,24.0,1.,24.0,0.,24.0
1979-07-31 00:54:09.300 ,7,0,33.,24.0,0.,24.0,0.,24.0,0.,24.0
1979-07-31 00:54:33.300 ,7,1,47.,24.0,0.,24.0,0.,24.0,0.,24.0
1979-07-31 00:54:57.300 ,7,0,27.,24.0,0.,24.0,1.,24.0,0.,24.0
1979-07-31 00:55:21.300 ,6,1,23.,24.0,0.,24.0,0.,24.0,0.,24.0
1979-07-31 00:55:45.300 ,6,0,0.,24.0,0.,24.0,0.,24.0,0.,24.0
1979-07-31 00:56:09.300 ,5,1,0.,24.0,0.,24.0,1.,24.0,0.,24.0
1979-07-31 00:56:33.300 ,5,0,0.,24.0,0.,24.0,0.,24.0,0.,24.0
1979-07-31 00:56:57.300 ,4,1,0.,24.0,0.,24.0,1.,24.0,0.,24.0
1979-07-31 00:57:21.300 ,4,0,0.,24.0,0.,24.0,0.,24.0,0.,24.0
1979-07-31 00:57:45.300 ,3,1,0.,24.0,0.,24.0,1.,24.0,0.,24.0
1979-07-31 00:58:09.300 ,3,0,0.,24.0,0.,24.0,0.,24.0,0.,24.0
1979-07-31 00:58:33.300 ,2,1,0.,24.0,0.,24.0,1.,24.0,0.,24.0
1979-07-31 00:58:57.300 ,2,0,0.,24.0,0.,24.0,0.,24.0,0.,24.0
1979-07-31 00:59:21.300 ,1,1,0.,24.0,0.,24.0,0.,24.0,0.,24.0
1979-07-31 00:59:45.300 ,1,0,0.,24.0,1.,24.0,1.,24.0,0.,24.0
1979-07-31 01:00:09.300 ,0,1,0.,24.0,1.,24.0,2.,24.0,0.,24.0
1979-07-31 01:00:33.300 ,0,0,0.,24.0,0.,24.0,0.,24.0,0.,24.0
1979-07-31 01:00:57.300 ,0,1,0.,24.0,0.,24.0,0.,24.0,0.,24.0
1979-07-31 01:01:21.300 ,0,0,1.,24.0,0.,24.0,1.,24.0,0.,24.0
1979-07-31 01:01:45.300 ,1,1,0.,24.0,0.,24.0,0.,24.0,0.,24.0
1979-07-31 01:02:09.300 ,1,0,0.,24.0,0.,24.0,2.,24.0,0.,24.0
1979-07-31 01:02:33.300 ,2,1,0.,24.0,0.,24.0,2.,24.0,0.,24.0
1979-07-31 01:02:57.300 ,2,0,0.,24.0,0.,24.0,1.,24.0,0.,24.0
1979-07-31 01:03:21.300 ,3,1,0.,24.0,0.,24.0,0.,24.0,0.,24.0
1979-07-31 01:03:45.300 ,3,0,0.,24.0,1.,24.0,0.,24.0,0.,24.0
1979-07-31 01:04:09.300 ,4,1,1.,24.0,0.,24.0,0.,24.0,0.,24.0
1979-07-31 01:04:33.300 ,4,0,1.,24.0,0.,24.0,3.,24.0,0.,24.0
1979-07-31 01:04:57.300 ,5,1,0.,24.0,0.,24.0,1.,24.0,0.,24.0
1979-07-31 01:05:21.300 ,5,0,0.,24.0,0.,24.0,2.,24.0,0.,24.0
1979-07-31 01:05:45.300 ,6,1,0.,24.0,0.,24.0,0.,24.0,0.,24.0
1979-07-31 01:06:09.300 ,6,0,0.,24.0,0.,24.0,3.,24.0,0.,24.0
1979-07-31 01:06:33.300 ,7,0,5.,24.0,0.,24.0,1.,24.0,0.,24.0
1979-07-31 01:06:57.300 ,7,0,27.,24.0,0.,24.0,1.,24.0,0.,24.0
1979-07-31 01:07:21.300 ,5,1,18.,24.0,0.,24.0,0.,24.0,0.,24.0
1979-07-31 01:07:45.300 ,1,1,0.,24.0,0.,24.0,0.,24.0,0.,24.0
1979-07-31 01:08:09.300 ,2,1,0.,24.0,0.,24.0,0.,24.0,0.,24.0
1979-07-31 01:08:33.300 ,6,1,0.,24.0,0.,24.0,0.,24.0,0.,24.0
1979-07-31 01:08:57.300 ,5,1,15.,24.0,0.,24.0,0.,24.0,0.,24.0
1979-07-31 01:09:21.300 ,1,1,0.,24.0,0.,24.0,0.,24.0,0.,24.0
1979-07-31 01:09:45.300 ,2,1,0.,24.0,0.,24.0,0.,24.0,0.,24.0
1979-07-31 01:10:09.300 ,6,1,0.,24.0,0.,24.0,1.,24.0,0.,24.0
1979-07-31 01:10:33.300 ,5,1,14.,24.0,0.,24.0,0.,24.0,0.,24.0
1979-07-31 01:10:57.300 ,1,1,0.,24.0,0.,24.0,1.,24.0,0.,24.0
1979-07-31 01:11:21.300 ,2,1,0.,24.0,0.,24.0,2.,24.0,0.,24.0
1979-07-31 01:11:45.300 ,6,1,0.,24.0,0.,24.0,0.,24.0,0.,24.0
1979-07-31 01:12:09.300 ,5,1,17.,24.0,0.,24.0,0.,24.0,0.,24.0
1979-07-31 01:12:33.300 ,1,1,0.,24.0,0.,24.0,1.,24.0,0.,24.0
1979-07-31 01:12:57.300 ,2,1,0.,24.0,0.,24.0,2.,24.0,0.,24.0
1979-07-31 01:13:21.300 ,6,1,0.,24.0,0.,24.0,2.,24.0,0.,24.0
1979-07-31 01:13:45.300 ,5,1,10.,24.0,1.,24.0,1.,24.0,0.,24.0
1979-07-31 01:14:09.300 ,1,1,0.,24.0,0.,24.0,0.,24.0,0.,24.0
1979-07-31 01:14:33.300 ,2,1,0.,24.0,0.,24.0,1.,24.0,0.,24.0
1979-07-31 01:14:57.300 ,6,1,0.,24.0,0.,24.0,5.,24.0,0.,24.0
1979-07-31 01:15:21.300 ,5,1,14.,24.0,0.,24.0,2.,24.0,0.,24.0
1979-07-31 01:15:45.300 ,1,1,0.,24.0,0.,24.0,2.,24.0,0.,24.0
1979-07-31 01:16:09.300 ,2,1,0.,24.0,0.,24.0,3.,24.0,0.,24.0
1979-07-31 01:16:33.300 ,6,1,0.,24.0,0.,24.0,0.,24.0,0.,24.0
1979-07-31 01:16:57.300 ,5,1,15.,24.0,0.,24.0,0.,24.0,0.,24.0
1979-07-31 01:17:21.300 ,1,1,0.,24.0,0.,24.0,1.,24.0,0.,24.0
1979-07-31 01:17:45.300 ,0,0,0.,24.0,0.,24.0,0.,24.0,0.,24.0
1979-07-31 01:18:09.300 ,0,0,0.,24.0,0.,24.0,2.,24.0,0.,24.0
1979-07-31 01:18:33.300 ,5,1,16.,24.0,0.,24.0,0.,24.0,0.,24.0
1979-07-31 01:18:57.300 ,5,0,0.,24.0,0.,24.0,0.,24.0,0.,24.0
1979-07-31 01:19:21.300 ,4,1,0.,24.0,0.,24.0,2.,24.0,0.,24.0
1979-07-31 01:19:45.300 ,4,0,0.,24.0,0.,24.0,1.,24.0,0.,24.0
1979-07-31 01:20:09.300 ,3,1,0.,24.0,0.,24.0,1.,24.0,0.,24.0
1979-07-31 01:20:33.300 ,3,0,0.,24.0,0.,24.0,1.,24.0,0.,24.0
1979-07-31 01:20:57.300 ,2,1,0.,24.0,0.,24.0,0.,24.0,0.,24.0
1979-07-31 01:21:21.300 ,2,0,0.,24.0,0.,24.0,0.,24.0,0.,24.0
1979-07-31 01:21:45.300 ,1,1,0.,24.0,0.,24.0,1.,24.0,0.,24.0
1979-07-31 01:22:09.300 ,1,0,0.,24.0,0.,24.0,0.,24.0,0.,24.0
1979-07-31 01:22:33.300 ,0,1,0.,24.0,0.,24.0,0.,24.0,0.,24.0
1979-07-31 01:22:57.300 ,0,0,0.,24.0,0.,24.0,2.,24.0,0.,24.0
1979-07-31 01:23:21.300 ,0,1,0.,24.0,0.,24.0,2.,24.0,0.,24.0
1979-07-31 01:23:45.300 ,0,0,1.,24.0,0.,24.0,1.,24.0,0.,24.0
1979-07-31 01:24:09.300 ,1,1,0.,24.0,0.,24.0,2.,24.0,0.,24.0
1979-07-31 01:24:33.300 ,1,0,0.,24.0,0.,24.0,1.,24.0,0.,24.0
1979-07-31 01:24:57.300 ,2,1,0.,24.0,0.,24.0,2.,24.0,0.,24.0
1979-07-31 01:25:21.300 ,2,0,0.,24.0,0.,24.0,2.,24.0,0.,24.0
1979-07-31 01:25:45.300 ,3,1,0.,24.0,0.,24.0,1.,24.0,0.,24.0
1979-07-31 01:26:09.300 ,3,0,0.,24.0,0.,24.0,2.,24.0,0.,24.0
1979-07-31 01:26:33.300 ,4,1,0.,24.0,0.,24.0,2.,24.0,0.,24.0
1979-07-31 01:26:57.300 ,4,0,0.,24.0,0.,24.0,3.,24.0,0.,24.0
1979-07-31 01:27:21.300 ,5,1,0.,24.0,0.,24.0,5.,24.0,0.,24.0
1979-07-31 01:27:45.300 ,5,0,0.,24.0,0.,24.0,1.,24.0,0.,24.0
1979-07-31 01:28:09.300 ,6,1,0.,24.0,0.,24.0,0.,24.0,0.,24.0
1979-07-31 01:28:33.300 ,6,0,1.,24.0,0.,24.0,1.,24.0,0.,24.0
1979-07-31 01:28:57.300 ,7,1,8.,24.0,0.,24.0,2.,24.0,0.,24.0
1979-07-31 01:29:21.300 ,7,0,35.,24.0,0.,24.0,1.,24.0,0.,24.0
1979-07-31 01:29:45.300 ,7,1,27.,24.0,0.,24.0,1.,24.0,0.,24.0
1979-07-31 01:30:09.300 ,7,0,41.,24.0,0.,24.0,1.,24.0,0.,24.0
1979-07-31 01:30:33.300 ,6,1,29.,24.0,0.,24.0,1.,24.0,0.,24.0
1979-07-31 01:30:57.300 ,6,0,0.,24.0,0.,24.0,1.,24.0,0.,24.0
1979-07-31 01:31:21.300 ,5,1,0.,24.0,1.,24.0,1.,24.0,0.,24.0
1979-07-31 01:31:45.300 ,5,0,0.,24.0,0.,24.0,1.,24.0,0.,24.0
1979-07-31 01:32:09.300 ,4,1,0.,24.0,0.,24.0,7.,24.0,0.,24.0
1979-07-31 01:32:33.300 ,4,0,0.,24.0,0.,24.0,18.,24.0,0.,24.0
1979-07-31 01:32:57.300 ,3,1,0.,24.0,0.,24.0,5.,24.0,0.,24.0
1979-07-31 01:33:21.300 ,3,0,0.,24.0,0.,24.0,4.,24.0,0.,24.0
1979-07-31 01:33:45.300 ,2,1,0.,24.0,0.,24.0,4.,24.0,0.,24.0
1979-07-31 01:34:09.300 ,2,0,0.,24.0,0.,24.0,0.,24.0,0.,24.0
1979-07-31 01:34:33.300 ,1,1,1.,24.0,0.,24.0,0.,24.0,0.,24.0
1979-07-31 01:34:57.300 ,1,0,0.,24.0,0.,24.0,3.,24.0,0.,24.0
1979-07-31 01:35:21.300 ,0,1,0.,24.0,0.,24.0,1.,24.0,0.,24.0
1979-07-31 01:35:45.300 ,0,0,0.,24.0,0.,24.0,2.,24.0,0.,24.0
1979-07-31 01:36:09.300 ,0,1,0.,24.0,0.,24.0,2.,24.0,0.,24.0
1979-07-31 01:36:33.300 ,0,0,0.,24.0,0.,24.0,2.,24.0,0.,24.0
1979-07-31 01:36:57.300 ,1,1,0.,24.0,0.,24.0,4.,24.0,0.,24.0
1979-07-31 01:37:21.300 ,1,0,0.,24.0,0.,24.0,1.,24.0,0.,24.0
1979-07-31 01:37:45.300 ,2,1,1.,24.0,0.,24.0,0.,24.0,0.,24.0
1979-07-31 01:38:09.300 ,2,0,0.,24.0,0.,24.0,0.,24.0,0.,24.0
1979-07-31 01:38:33.300 ,3,1,0.,24.0,0.,24.0,1.,24.0,0.,24.0
1979-07-31 01:38:57.300 ,3,0,0.,24.0,0.,24.0,3.,24.0,0.,24.0
1979-07-31 01:39:21.300 ,4,1,0.,24.0,0.,24.0,5.,24.0,0.,24.0
1979-07-31 01:39:45.300 ,4,0,0.,24.0,0.,24.0,6.,24.0,0.,24.0
1979-07-31 01:40:09.300 ,5,1,0.,24.0,0.,24.0,7.,24.0,0.,24.0
1979-07-31 01:40:33.300 ,5,0,0.,24.0,0.,24.0,5.,24.0,0.,24.0
1979-07-31 01:40:57.300 ,6,1,0.,24.0,0.,24.0,4.,24.0,0.,24.0
1979-07-31 01:41:21.300 ,6,0,0.,24.0,1.,24.0,2.,24.0,0.,24.0
1979-07-31 01:41:45.300 ,7,1,3.,24.0,0.,24.0,4.,24.0,0.,24.0
1979-07-31 01:42:09.300 ,7,0,32.,24.0,0.,24.0,0.,24.0,0.,24.0
1979-07-31 01:42:33.300 ,7,1,33.,24.0,0.,24.0,0.,24.0,0.,24.0
1979-07-31 01:42:57.300 ,7,0,25.,24.0,0.,24.0,1.,24.0,0.,24.0
1979-07-31 01:43:21.300 ,6,1,23.,24.0,0.,24.0,2.,24.0,0.,24.0
1979-07-31 01:43:45.300 ,6,0,0.,24.0,0.,24.0,3.,24.0,0.,24.0
1979-07-31 01:44:09.300 ,5,1,0.,24.0,0.,24.0,0.,24.0,0.,24.0
1979-07-31 01:44:33.300 ,5,0,0.,24.0,0.,24.0,0.,24.0,0.,24.0
1979-07-31 01:44:57.300 ,4,1,0.,24.0,0.,24.0,0.,24.0,0.,24.0
1979-07-31 01:45:21.300 ,4,0,0.,24.0,0.,24.0,1.,24.0,0.,24.0
1979-07-31 01:45:45.300 ,3,1,0.,24.0,0.,24.0,0.,24.0,0.,24.0
1979-07-31 01:46:09.300 ,3,0,0.,24.0,0.,24.0,3.,24.0,0.,24.0
1979-07-31 01:46:33.300 ,2,1,0.,24.0,0.,24.0,0.,24.0,0.,24.0
1979-07-31 01:46:57.300 ,2,0,0.,24.0,0.,24.0,3.,24.0,0.,24.0
